Location: Tarleton Observatory
(32.2162°N, 98.0976°W)
Time: 01:32:26
(UTC-05:00)

Daily predictions for brighter satellites

Satellite Brightness Start Highest point End
(mag) Time Altitude Azimuth Time Altitude Azimuth Time Altitude Azimuth
Cosmos 2369 Rocket 4.4 00:12:49 15° NE 00:12:49 15° NE 00:13:53 10° NE
Terra 4.4 00:43:30 14° WNW 00:43:30 14° WNW 00:44:39 10° NW
USA 229 DEB 4.4 00:38:24 10° NW 00:43:40 50° WNW 00:43:40 50° WNW
USA 229 4.4 00:38:30 10° NW 00:43:46 50° WNW 00:43:46 50° WNW
Lacrosse 5 4.3 01:01:49 18° NNE 01:01:49 18° NNE 01:03:17 10° NNE
ATLAS 2AS CENTAUR R/B 4.4 01:18:19 10° N 01:25:09 29° NE 01:27:02 26° ENE
NOSS 3-1 (C) 4.5 01:27:36 10° NNW 01:33:31 57° NW 01:33:31 57° NW
Cosmos 2369 Rocket 4.2 01:54:35 22° NNW 01:54:35 22° NNW 01:57:28 10° N
SeaSat 1 4.5 02:27:10 25° NNE 02:27:10 25° NNE 02:29:29 10° N
Cosmos 1943 Rocket 4.1 02:37:57 22° NNW 02:37:57 22° NNW 02:40:44 10° N
ATLAS 3B CENTAUR R/B 4.4 02:35:50 56° WSW 02:40:09 77° S 03:15:17 10° E
CZ-3B DEB 4.1 02:29:16 10° NW 02:57:57 68° WSW 02:59:56 63° SSW
BREEZE-M DEB (TANK) 4.5 03:04:08 55° NNE 03:04:08 55° NNE 03:06:58 10° NE
ATLAS CENTAUR R/B 3.7 03:14:20 26° ENE 03:14:20 26° ENE 03:16:55 10° NE
ATLAS 2AS CENTAUR R/B 3.5 03:08:50 10° NW 03:14:24 45° WNW 03:14:24 45° WNW
Cosmos 1697 Rocket 3.6 03:39:37 39° ESE 03:39:37 39° ESE 03:44:45 10° NE
CZ-2D R/B 3.3 03:36:39 10° NNE 03:41:34 34° E 03:41:59 33° ESE
Cosmos 2034 Rocket 4.1 03:41:25 68° ESE 03:41:37 69° E 03:47:46 10° NNE
SL-16 R/B 3.8 03:38:42 18° SE 03:42:33 36° ENE 03:48:06 10° N
Cosmos 2082 4.3 03:38:17 10° N 03:43:46 51° ENE 03:44:50 45° ESE
Meteor 2-5 Rocket 4.0 03:40:57 10° N 03:46:50 67° E 03:47:09 66° ESE
Cosmos 1980 Rocket 3.7 03:46:17 24° ESE 03:47:12 25° ESE 03:51:44 10° NE
Cosmos 2227 Rocket 2.3 03:50:01 10° NNW 03:55:41 71° ENE 03:56:12 66° ESE
Cosmos 468 Rocket 4.3 03:56:59 58° NNW 03:56:59 58° NNW 04:01:15 10° NNE
Cosmos 2369 4.4 04:07:54 41° NW 04:07:54 41° NW 04:12:53 10° N
Cosmos 2150 Rocket 4.0 04:02:38 10° NNW 04:07:51 77° ENE 04:08:00 76° E
Cosmos 1766 4.2 04:13:39 48° NE 04:13:39 48° NE 04:16:40 10° NNE
UNK 4.4 04:12:06 45° ESE 04:13:04 54° ENE 04:17:38 10° N
BREEZE-M R/B 4.5 04:07:37 10° NW 04:13:38 68° NE 04:21:03 10° SE
Milstar 3 Cent rocket 2.4 04:16:48 57° SSE 04:16:48 57° SSE 04:24:02 10° E
Cosmos 2297 Rocket 2.2 04:11:42 10° NNW 04:17:22 76° ENE 04:19:51 35° SSE
Cosmos 1898 Rocket 3.4 04:16:15 10° NNW 04:21:35 76° WSW 04:21:41 76° WSW
Resurs 1-4 Rocket 1.9 04:22:29 10° N 04:27:45 81° WNW 04:28:28 66° SW
Cosmos 1758 4.3 04:27:24 39° ESE 04:27:58 42° E 04:31:47 10° NNE
Cosmos 841 Rocket 3.4 04:28:20 68° SSW 04:29:02 87° WNW 04:34:19 10° NNE
Meteor 1-22 Rocket 4.3 04:28:18 57° SW 04:29:25 70° W 04:35:32 10° N
SL-16 R/B 4.3 04:25:38 10° SSE 04:29:40 20° E 04:33:43 10° NE
Cosmos 1634 Rocket 4.4 04:26:35 29° SSE 04:29:48 61° E 04:35:58 10° NNE
UNKNOWN OBJECT B 3.0 04:26:28 10° NNE 04:30:05 67° ENE 04:30:05 67° ENE
CZ-3 R/B 4.0 04:14:41 31° SW 04:31:47 55° SSE 04:41:38 10° E
Cosmos 1953 2.8 04:33:27 49° SE 04:33:59 54° E 04:37:56 10° NNE
Cosmos 1378 3.3 04:31:21 10° N 04:35:03 69° ENE 04:35:03 69° ENE
Cosmos 1937 Rocket 3.3 04:30:52 10° NNW 04:36:03 79° WSW 04:37:33 47° S
Cosmos 1763 Rocket 3.5 04:36:11 58° WSW 04:36:49 63° WNW 04:42:00 10° N
Meteor 1-24 Rocket 3.7 04:31:10 10° N 04:36:56 77° W 04:39:07 40° S
EO 1 Del DPAF 3.2 04:37:50 84° ENE 04:37:50 84° ENE 04:41:42 10° N
NOSS 3-4 (A) 4.1 04:32:20 10° NNW 04:39:26 71° ENE 04:46:54 10° SE
NOSS 3-4 (C) 4.1 04:32:27 10° NNW 04:39:34 70° ENE 04:47:04 10° SE
MOS 1-B 4.2 04:33:57 10° NNE 04:39:47 83° WNW 04:41:46 44° SSW
CZ-3A R/B 4.4 04:36:24 26° WSW 04:44:12 50° NW 04:49:29 10° NNE
ARIANE 5 R/B 3.1 04:40:13 10° N 04:44:58 39° WNW 04:45:27 38° W
Cosmos 1805 3.4 04:45:52 56° SSE 04:46:32 70° E 04:50:26 10° NNE
ATLAS CENTAUR R/B 4.4 04:41:46 32° SSW 04:46:38 78° ESE 05:13:01 10° NE
Cosmos 1092 Rocket 3.9 04:42:26 10° N 04:48:45 88° W 04:53:38 18° S
CZ-2D R/B 3.5 04:47:04 10° N 04:51:26 86° WNW 04:52:35 49° SSW
ATLAS CENTAUR R/B 3.2 04:50:41 24° WNW 04:51:30 25° NW 04:55:38 10° N
Cosmos 1441 Rocket 3.1 04:49:29 10° N 04:53:28 83° W 04:54:23 52° S
GPS 2-04 Rocket1 3.3 04:53:38 36° NW 04:54:49 50° N 04:58:32 10° ENE
CZ-4B R/B 3.7 04:49:38 10° NNE 04:55:03 55° E 04:59:09 17° S
Aureole 1 Rocket 4.5 04:58:14 17° S 05:02:10 54° E 05:08:49 10° NNE
OAO 3 Rocket 4.5 05:07:00 22° S 05:07:00 22° S 05:09:23 10° SSE
Delta 7925 Rocket 4.2 05:04:58 32° SSW 05:05:26 33° SSW 05:09:51 10° SE
Cosmos 540 Rocket 3.5 05:06:46 25° S 05:09:50 82° ESE 05:15:02 10° NNE
Meteor 1-21 Rocket 4.5 05:04:32 10° N 05:10:29 78° E 05:16:24 10° SSE
Cosmos 2142 Rocket 4.5 05:07:06 26° SSW 05:10:37 62° W 05:16:41 10° N
ASTRO E2 2.7 05:13:08 38° WSW 05:14:24 59° SSW 05:18:22 10° ESE
Cosmos 1500 Rocket 4.1 05:12:40 10° N 05:17:01 59° E 05:21:17 10° SSE
SL-24 R/B - RUBIN 2 4.3 05:13:29 22° SSW 05:17:05 76° ESE 05:23:16 10° NNE
Cosmos 332 Rocket 3.7 05:14:56 24° SSW 05:17:52 89° WNW 05:22:42 10° NNE
Okean O Rocket 1.7 05:15:30 10° N 05:19:49 58° WNW 05:22:08 26° SW
Cosmos 1076 Rocket 4.4 05:17:10 10° NNW 05:20:55 29° W 05:21:36 28° WSW
CZ-2D R/B 3.4 05:17:02 10° NNW 05:21:23 25° WNW 05:23:19 20° W
Cosmos 1743 Rocket 3.4 05:17:04 10° N 05:21:24 78° W 05:25:45 10° S
Cosmos 1697 Rocket 4.0 05:21:22 19° W 05:23:33 24° WNW 05:28:04 10° N
SL-16 R/B 3.4 05:23:47 22° SW 05:26:07 28° W 05:31:20 10° NW
Cosmos 2279 Rocket 3.9 05:20:22 12° S 05:26:18 79° W 05:32:34 10° N
ISS -1.5 05:25:34 10° NNW 05:28:34 33° NE 05:31:33 10° ESE
In-Cosmos 22 4.2 05:23:54 10° NNW 05:29:02 53° W 05:34:11 10° S
Cosmos 1544 3.3 05:27:32 27° SW 05:29:11 49° W 05:32:45 10° N
USA 81 4.1 05:26:27 17° SSW 05:30:30 57° W 05:35:42 10° N
Cosmos 1980 Rocket 3.0 05:28:05 21° WSW 05:30:57 34° WNW 05:36:04 10° N
Cosmos 2360 Rocket 4.1 05:27:07 10° SSE 05:31:41 26° ESE 05:36:18 10° NE
CZ-4B DEB 4.2 05:26:31 10° N 05:32:02 72° WNW 05:37:08 12° SSW
CZ-4B R/B 2.8 05:31:39 10° N 05:35:29 56° WNW 05:38:04 18° SSW
Cosmos 371 Rocket 3.2 05:34:22 13° SSW 05:38:37 83° WNW 05:43:26 10° NNE
Cosmos 2227 Rocket 4.1 05:37:15 10° W 05:37:55 11° W 05:37:55 11° W
Cosmos 1674 2.7 05:35:31 10° N 05:39:17 82° E 05:43:01 10° S
ADEOS II 2.8 05:35:30 10° NNE 05:40:40 54° E 05:45:47 10° S
Cosmos-2242 4.5 05:39:47 17° WSW 05:41:09 20° WNW 05:44:22 10° NNW
Cosmos 1470 2.8 05:38:05 15° SSW 05:41:13 58° W 05:45:08 10° N
Cosmos 2322 Rocket 2.2 05:36:21 13° SSW 05:41:20 77° WNW 05:46:58 10° NNE
Cosmos 2221 3.3 05:37:54 10° S 05:42:01 51° E 05:46:10 10° NNE
DELTA 2 R/B (1) 4.0 05:39:00 17° SW 05:43:10 56° SSE 05:48:38 10° ENE
Cosmos 1655 Rocket 4.1 05:37:50 10° NNW 05:44:06 61° W 05:50:22 10° S
GEOS 3 Rocket 4.4 05:40:00 10° S 05:44:26 28° WSW 05:48:52 10° WNW
SWIFT 4.3 05:45:07 12° SSW 05:45:57 13° S 05:47:48 10° SSE
Delta 128 4.4 05:46:41 16° SW 05:49:58 40° SSE 05:54:43 10° E
Cosmos 2297 Rocket 4.0 05:59:48 10° W 06:00:38 10° W 06:01:27 10° WSW
Aurora 2 Rocket 3.3 05:58:52 13° SW 06:00:47 21° S 06:03:30 10° SE
Okean-O 2.7 05:57:00 10° N 06:01:23 64° WNW 06:05:45 10° SSW
Meteor PRIRODA 3.6 05:58:22 10° NNE 06:02:03 89° ESE 06:05:43 10° SSW
PSLV R/B 3.6 05:59:11 10° N 06:03:21 61° WNW 06:07:33 10° SSW
Cosmos 372 Rocket 3.9 06:01:36 10° NNW 06:06:40 67° WSW 06:11:42 10° S
Cosmos 1125 Rocket 4.1 06:04:57 10° NW 06:09:36 34° W 06:14:13 10° SSW
SL-16 R/B 2.7 06:08:03 10° SW 06:13:23 42° WNW 06:18:45 10° N
Meteor 1-31 Rocket 3.0 06:12:02 10° NNE 06:15:57 78° E 06:19:48 10° S
Cosmos 1805 Rocket 3.8 06:13:21 10° N 06:17:42 75° E 06:22:03 10° S
